Temp
-8 -8 -7 -7 -7 -7 -7 -7 -7 -7 -7 -7 -7 -7 -7 -7 -7 -7 -7 -8 -8 -8 -8 -8 -9 -9 -9 -9 -9 -9 -10 -10 -10 -10 -10 -10 -11 -11 -11 -12 -11 -11 -11
-8 -8 -8 -8 -8 -7 -7 -7 -7 -7 -7 -7 -7 -7 -7 -7 -7 -8 -8 -8 -8 -8 -8 -8 -9 -9 -9 -9 -9 -9 -9 -10 -10 -10 -11 -11 -12 -11 -12 -12 -12 -12 -12
-8 -9 -8 -8 -8 -8 -8 -8 -8 -7 -7 -7 -7 -7 -7 -8 -8 -8 -8 -8 -8 -8 -8 -9 -9 -9 -9 -10 -10 -10 -10 -10 -10 -11 -11 -11 -11 -11 -12 -12 -12 -12 -12
-9 -9 -9 -9 -9 -8 -8 -8 -8 -8 -8 -8 -8 -7 -7 -8 -8 -8 -8 -8 -8 -8 -9 -9 -9 -9 -9 -10 -10 -10 -10 -10 -10 -11 -11 -11 -12 -12 -12 -12 -12 -12 -11
-9 -9 -9 -9 -9 -9 -9 -9 -9 -9 -9 -8 -8 -8 -8 -8 -8 -8 -8 -8 -8 -8 -9 -9 -9 -9 -9 -10 -10 -10 -10 -10 -10 -11 -11 -12 -12 -12 -12 -12 -12 -12 -12
-9 -9 -9 -10 -10 -10 -10 -9 -9 -9 -9 -9 -9 -8 -8 -8 -8 -8 -8 -8 -8 -8 -9 -9 -9 -9 -10 -10 -10 -10 -10 -11 -11 -11 -11 -12 -12 -12 -12 -13 -13 -13 -13
-10 -10 -10 -10 -10 -10 -10 -10 -10 -10 -9 -9 -9 -9 -9 -8 -8 -8 -8 -8 -8 -8 -9 -9 -9 -10 -10 -10 -10 -10 -10 -10 -11 -11 -11 -11 -11 -12 -12 -12 -12 -12 -13
-10 -10 -11 -11 -11 -11 -11 -10 -10 -10 -10 -9 -9 -9 -9 -9 -9 -8 -8 -8 -8 -9 -9 -9 -9 -9 -10 -10 -10 -10 -10 -10 -11 -11 -11 -11 -12 -12 -12 -12 -12 -12 -12
-10 -11 -11 -11 -11 -11 -11 -11 -10 -11 -10 -10 -10 -10 -10 -9 -9 -9 -9 -8 -8 -9 -9 -9 -9 -9 -10 -10 -10 -10 -10 -10 -10 -11 -11 -11 -12 -12 -12 -11 -12 -11 -12
-11 -11 -11 -11 -11 -11 -11 -11 -11 -11 -11 -10 -10 -10 -10 -10 -10 -9 -9 -9 -9 -9 -9 -9 -9 -9 -9 -10 -10 -10 -10 -10 -11 -11 -11 -11 -12 -12 -12 -12 -12 -12 -12
-11 -11 -11 -12 -12 -12 -11 -11 -11 -11 -11 -11 -10 -10 -10 -10 -10 -10 -9 -9 -9 -9 -9 -9 -9 -9 -9 -9 -10 -10 -10 -10 -11 -11 -11 -11 -12 -12 -12 -12 -12 -12 -12
-11 -11 -12 -12 -12 -12 -11 -11 -11 -11 -11 -11 -11 -11 -11 -10 -11 -10 -10 -10 -9 -10 -9 -9 -9 -9 -9 -9 -10 -10 -10 -11 -11 -11 -11 -11 -11 -12 -12 -12 -12 -12 -12
-11 -11 -12 -12 -12 -12 -12 -12 -11 -11 -11 -11 -11 -11 -11 -11 -11 -11 -10 -10 -10 -10 -10 -10 -9 -9 -9 -9 -9 -10 -10 -11 -11 -11 -11 -12 -11 -11 -12 -12 -12 -12 -12
-11 -11 -12 -12 -12 -12 -12 -12 -12 -12 -12 -12 -11 -11 -11 -11 -11 -11 -11 -10 -10 -10 -10 -10 -10 -10 -10 -10 -10 -10 -10 -10 -11 -11 -11 -12 -12 -12 -12 -11 -12 -12 -12
-11 -12 -12 -12 -12 -12 -12 -12 -12 -12 -12 -12 -12 -11 -11 -11 -11 -11 -11 -11 -11 -10 -10 -10 -10 -10 -10 -10 -10 -10 -10 -10 -11 -11 -11 -12 -12 -11 -12 -12 -12 -12 -12
-11 -12 -12 -12 -12 -12 -12 -11 -12 -12 -12 -12 -12 -12 -11 -11 -11 -11 -11 -11 -11 -11 -11 -11 -11 -11 -10 -10 -10 -10 -10 -10 -10 -11 -12 -12 -11 -12 -11 -12 -12 -12 -12
-11 -12 -12 -12 -12 -12 -12 -12 -12 -12 -12 -12 -12 -12 -12 -12 -11 -11 -11 -11 -11 -11 -11 -11 -11 -11 -11 -11 -11 -11 -10 -10 -11 -11 -12 -12 -12 -12 -12 -11 -12 -12 -12
-11 -12 -12 -12 -12 -12 -13 -13 -12 -12 -12 -12 -12 -12 -12 -12 -12 -12 -11 -11 -11 -12 -12 -12 -11 -11 -11 -11 -11 -11 -11 -11 -11 -12 -12 -12 -12 -12 -12 -12 -12 -12 -12
-12 -12 -12 -13 -12 -13 -13 -13 -13 -12 -12 -12 -12 -12 -12 -12 -12 -13 -12 -12 -12 -12 -12 -12 -12 -12 -12 -12 -11 -11 -11 -11 -11 -12 -12 -12 -12 -12 -12 -12 -12 -12 -13
-12 -12 -12 -13 -13 -13 -14 -13 -12 -12 -12 -12 -12 -13 -12 -13 -13 -13 -13 -12 -12 -12 -12 -12 -12 -12 -12 -12 -12 -12 -12 -12 -12 -12 -12 -12 -12 -12 -13 -13 -12 -12 -12
-12 -12 -12 -12 -13 -13 -13 -12 -12 -13 -12 -12 -13 -13 -13 -13 -13 -13 -13 -13 -13 -13 -12 -13 -12 -13 -13 -12 -12 -12 -12 -12 -12 -12 -12 -12 -12 -13 -13 -13 -13 -13 -13
-12 -12 -12 -13 -13 -13 -13 -12 -13 -14 -14 -13 -13 -13 -13 -13 -13 -13 -13 -13 -13 -13 -13 -13 -13 -13 -13 -13 -13 -12 -12 -12 -12 -12 -13 -12 -12 -13 -13 -13 -13 -13 -13
-13 -13 -13 -13 -13 -13 -13 -13 -13 -13 -14 -13 -13 -13 -13 -13 -13 -14 -14 -13 -13 -13 -14 -13 -13 -13 -13 -13 -13 -13 -13 -13 -13 -13 -12 -13 -13 -13 -13 -13 -13 -13 -13
-13 -14 -13 -14 -13 -15 -14 -14 -13 -13 -14 -14 -14 -14 -14 -14 -14 -14 -14 -14 -14 -13 -14 -14 -14 -13 -13 -13 -13 -13 -13 -13 -13 -13 -13 -13 -13 -13 -13 -13 -13 -13 -13
-16 -16 -15 -14 -14 -15 -15 -14 -14 -15 -15 -15 -14 -14 -15 -15 -14 -14 -14 -14 -14 -14 -14 -14 -14 -13 -13 -13 -13 -13 -13 -14 -13 -13 -13 -13 -14 -13 -13 -13 -13 -13 -13
-19 -17 -16 -15 -15 -15 -15 -15 -14 -13 -15 -15 -15 -14 -14 -15 -14 -14 -14 -14 -14 -14 -14 -14 -14 -13 -13 -13 -13 -13 -13 -13 -14 -13 -13 -14 -14 -14 -14 -13 -13 -13 -13
Height
5871 5871 5870 5870 5870 5869 5867 5866 5866 5865 5864 5864 5864 5864 5863 5862 5861 5858 5857 5855 5853 5852 5850 5848 5846 5846 5845 5844 5843 5843 5843 5843 5844 5843 5843 5842 5839 5839 5842 5842 5840 5841 5841
5868 5868 5868 5867 5866 5866 5865 5864 5863 5863 5862 5862 5861 5861 5861 5860 5859 5857 5856 5854 5852 5850 5849 5847 5845 5844 5843 5843 5842 5842 5841 5841 5841 5841 5840 5839 5836 5837 5837 5840 5838 5838 5839
5863 5863 5864 5863 5863 5863 5862 5861 5860 5860 5859 5859 5859 5859 5859 5858 5858 5856 5854 5853 5850 5848 5847 5846 5845 5843 5842 5842 5841 5840 5840 5839 5839 5839 5838 5838 5836 5834 5836 5836 5835 5835 5837
5859 5858 5859 5859 5859 5859 5859 5858 5858 5857 5856 5857 5856 5856 5856 5856 5855 5854 5853 5851 5850 5847 5846 5844 5843 5842 5840 5839 5838 5838 5837 5837 5837 5836 5835 5835 5834 5833 5832 5832 5831 5831 5832
5854 5854 5855 5855 5855 5855 5855 5855 5855 5854 5853 5853 5853 5853 5853 5853 5853 5852 5851 5850 5848 5846 5845 5843 5841 5840 5839 5838 5837 5836 5835 5835 5835 5834 5833 5831 5830 5829 5828 5827 5826 5826 5828
5849 5849 5849 5851 5851 5851 5852 5852 5851 5851 5851 5851 5850 5850 5850 5850 5851 5850 5849 5848 5846 5845 5844 5842 5840 5839 5837 5836 5835 5835 5834 5833 5832 5831 5830 5828 5827 5823 5823 5824 5823 5823 5825
5843 5844 5845 5846 5847 5848 5847 5848 5848 5848 5847 5847 5847 5847 5847 5846 5847 5847 5846 5846 5844 5843 5842 5840 5838 5837 5836 5834 5834 5833 5832 5831 5829 5828 5826 5825 5823 5820 5818 5817 5816 5818 5821
5837 5838 5840 5841 5843 5843 5843 5844 5844 5844 5844 5844 5843 5843 5843 5842 5843 5843 5843 5842 5842 5841 5840 5839 5837 5835 5834 5834 5833 5831 5831 5829 5827 5825 5823 5823 5821 5820 5816 5811 5811 5815 5816
5831 5833 5835 5836 5838 5838 5839 5839 5839 5840 5841 5840 5840 5839 5839 5839 5839 5839 5840 5839 5839 5838 5837 5836 5835 5834 5832 5832 5831 5829 5828 5827 5826 5823 5820 5821 5819 5817 5814 5802 5810 5814 5815
5826 5827 5830 5831 5832 5833 5833 5834 5835 5836 5836 5836 5835 5836 5834 5834 5835 5835 5836 5835 5836 5835 5834 5834 5833 5832 5830 5829 5828 5827 5826 5825 5823 5820 5818 5818 5818 5817 5815 5815 5815 5814 5814
5819 5820 5822 5823 5825 5826 5827 5828 5829 5831 5831 5832 5831 5832 5831 5831 5831 5830 5831 5832 5832 5832 5831 5830 5830 5830 5828 5827 5826 5826 5824 5823 5821 5818 5815 5815 5815 5815 5813 5812 5812 5812 5812
5811 5812 5814 5816 5818 5819 5821 5823 5823 5824 5826 5826 5827 5827 5827 5827 5827 5827 5827 5827 5828 5828 5827 5827 5826 5827 5826 5825 5823 5823 5821 5820 5818 5816 5814 5813 5810 5812 5811 5810 5810 5809 5809
5803 5804 5806 5808 5811 5814 5816 5816 5818 5819 5819 5820 5822 5823 5823 5823 5824 5824 5823 5823 5823 5823 5823 5823 5823 5823 5823 5822 5820 5819 5818 5816 5815 5813 5811 5810 5808 5808 5807 5806 5804 5804 5805
5795 5797 5799 5801 5803 5806 5809 5811 5812 5812 5813 5814 5815 5818 5818 5818 5820 5820 5820 5819 5819 5819 5819 5819 5819 5819 5819 5818 5817 5816 5815 5813 5812 5811 5808 5807 5806 5804 5803 5803 5801 5800 5801
5786 5788 5791 5792 5795 5798 5800 5803 5807 5806 5805 5808 5809 5811 5812 5813 5814 5815 5815 5815 5815 5815 5815 5815 5815 5815 5815 5814 5813 5813 5812 5810 5809 5807 5806 5804 5803 5802 5800 5799 5798 5797 5795
5773 5777 5781 5784 5786 5788 5792 5795 5799 5801 5799 5799 5802 5805 5805 5808 5809 5810 5810 5811 5811 5811 5811 5810 5810 5810 5810 5810 5810 5809 5808 5806 5805 5804 5803 5800 5799 5799 5798 5796 5795 5794 5794
5761 5765 5770 5773 5776 5778 5781 5787 5791 5794 5794 5794 5794 5796 5800 5801 5803 5804 5805 5805 5806 5806 5806 5806 5806 5805 5805 5805 5805 5805 5804 5802 5801 5800 5799 5797 5795 5794 5794 5792 5791 5791 5791
5749 5753 5757 5761 5765 5768 5771 5775 5783 5786 5788 5787 5788 5789 5791 5794 5796 5798 5799 5800 5800 5800 5800 5801 5802 5801 5800 5800 5801 5800 5799 5798 5797 5796 5794 5793 5792 5790 5789 5788 5787 5786 5788
5736 5740 5744 5749 5753 5757 5761 5764 5770 5777 5778 5779 5781 5784 5785 5786 5788 5791 5793 5794 5794 5795 5794 5795 5796 5796 5795 5794 5795 5794 5794 5793 5792 5791 5789 5787 5786 5786 5784 5783 5782 5781 5781
5717 5724 5729 5736 5743 5746 5748 5752 5757 5767 5769 5772 5774 5777 5779 5780 5780 5783 5786 5787 5787 5789 5788 5788 5789 5790 5790 5789 5789 5788 5788 5787 5786 5785 5783 5782 5781 5780 5779 5779 5777 5777 5775
5700 5708 5714 5720 5729 5734 5736 5741 5746 5753 5761 5764 5766 5768 5770 5772 5774 5776 5777 5779 5780 5781 5781 5782 5783 5783 5783 5783 5784 5782 5782 5781 5780 5778 5777 5777 5775 5774 5773 5773 5772 5770 5770
5680 5687 5696 5704 5711 5719 5725 5733 5738 5744 5750 5755 5756 5759 5762 5765 5768 5769 5769 5771 5772 5773 5774 5774 5775 5775 5775 5776 5776 5776 5776 5776 5774 5773 5772 5770 5769 5768 5767 5765 5765 5765 5763
5655 5667 5676 5685 5694 5703 5712 5720 5725 5730 5737 5744 5747 5752 5758 5760 5761 5760 5761 5762 5764 5765 5766 5766 5766 5767 5766 5767 5768 5769 5769 5768 5768 5766 5766 5764 5763 5761 5760 5758 5758 5758 5757
5624 5641 5655 5667 5678 5688 5698 5704 5709 5716 5727 5735 5739 5742 5746 5748 5749 5751 5752 5754 5756 5757 5757 5757 5757 5758 5758 5759 5759 5760 5760 5761 5760 5760 5759 5757 5756 5754 5752 5751 5750 5751 5751
5596 5614 5632 5647 5662 5674 5683 5691 5695 5685 5708 5722 5728 5732 5735 5739 5739 5741 5744 5746 5747 5749 5747 5747 5748 5750 5751 5752 5753 5753 5752 5753 5753 5752 5751 5752 5749 5747 5745 5744 5742 5742 5742
5578 5593 5611 5628 5647 5660 5671 5680 5684 5665 5700 5712 5717 5721 5724 5728 5730 5730 5733 5736 5737 5738 5737 5738 5739 5740 5742 5743 5744 5745 5745 5744 5744 5744 5744 5742 5742 5741 5738 5736 5734 5733 5733
Wind_Speed
16 16 18 19 18 14 13 12 11 11 11 9 10 9 7 7 9 9 10 11 12 12 11 9 8 9 9 8 8 8 9 9 12 14 15 16 20 19 16 11 13 17 17
18 18 19 23 25 21 16 14 14 13 12 11 10 11 9 8 9 9 11 12 13 12 12 11 10 9 9 9 10 10 12 10 10 12 14 16 21 11 13 13 15 16 19
20 20 19 21 24 21 19 16 16 15 14 13 12 11 10 10 9 9 10 12 13 14 13 12 11 10 10 9 10 11 11 12 12 12 14 17 20 23 21 19 18 19 18
22 19 18 18 17 18 18 20 17 17 15 15 13 13 11 11 11 9 9 10 13 13 14 13 12 11 11 11 12 10 10 11 11 13 16 16 19 21 23 22 22 23 19
22 21 21 17 16 13 16 21 21 18 16 16 15 14 14 13 13 11 9 9 11 12 12 13 11 11 11 12 12 10 10 11 13 14 15 18 20 21 24 25 27 17 18
26 27 25 23 19 19 17 19 23 22 19 17 16 16 16 15 15 15 12 10 10 12 11 12 11 10 11 12 13 12 12 12 13 14 16 18 20 25 25 26 29 26 17
29 30 28 25 22 22 23 23 22 22 20 19 16 16 16 16 16 17 15 12 10 11 13 12 11 10 11 12 13 13 13 13 13 15 15 17 19 25 26 25 30 26 23
31 31 31 29 26 27 28 27 22 21 20 20 17 16 16 15 16 16 16 14 12 11 11 12 12 11 11 12 13 13 15 13 13 14 16 16 19 20 21 29 30 23 18
31 32 33 31 29 31 32 28 24 21 20 20 18 16 16 15 15 15 16 15 15 12 11 12 11 12 11 12 13 13 14 14 13 14 15 15 17 18 18 9 21 22 18
32 34 35 34 34 32 28 27 28 24 20 20 18 17 16 16 15 15 15 15 16 15 12 12 12 12 13 13 13 14 14 15 13 14 13 15 13 13 15 14 18 24 18
33 36 37 38 36 33 30 26 25 24 22 21 20 19 18 18 15 15 15 16 16 18 15 13 13 11 12 13 13 15 14 15 15 14 13 15 15 13 13 14 9 13 16
37 38 38 39 38 37 32 25 26 24 23 24 22 20 18 18 17 16 15 16 16 17 19 16 14 12 11 13 12 15 16 16 15 15 14 14 17 13 14 15 12 13 15
39 40 39 40 40 40 37 32 30 31 28 27 26 23 20 18 18 17 17 18 17 17 18 18 16 14 10 12 12 13 15 15 16 16 16 16 18 15 18 15 13 14 13
43 42 41 41 42 42 42 42 33 30 28 28 28 25 24 19 19 18 19 19 19 19 19 19 19 16 13 12 12 13 14 16 16 18 17 18 18 18 18 16 15 12 16
47 47 45 45 43 42 44 42 37 29 30 32 33 29 27 24 22 21 20 21 21 21 20 19 19 18 16 15 14 14 14 15 16 18 18 18 19 18 20 18 22 14 19
52 51 50 48 46 45 43 42 38 35 33 31 34 34 31 27 27 24 23 21 25 23 23 22 19 19 18 16 16 15 16 15 16 17 19 20 20 18 20 22 22 21 17
54 55 53 52 50 47 47 41 37 37 36 35 33 35 33 30 29 25 23 23 27 24 24 25 22 20 19 18 17 16 18 17 18 19 19 19 20 21 20 21 25 23 24
56 57 57 55 52 50 48 47 39 36 40 39 37 34 33 31 30 28 26 26 25 26 26 27 26 23 21 20 18 16 19 18 20 20 20 21 20 22 23 23 24 28 25
60 60 60 59 57 55 53 51 45 39 42 43 40 36 32 32 31 29 28 28 28 26 28 28 28 28 24 22 20 19 20 20 21 21 21 23 23 24 25 25 25 29 31
67 63 62 62 61 60 57 56 54 45 43 45 41 38 38 35 33 29 29 31 32 30 29 30 29 30 27 25 22 22 21 22 22 23 23 23 24 26 26 27 27 26 29
75 71 67 65 63 64 63 59 55 52 44 48 42 42 40 39 35 31 31 34 36 34 33 31 29 31 30 27 25 25 24 24 23 26 25 24 26 27 26 28 31 31 33
80 79 75 71 69 67 66 62 60 57 48 49 48 45 43 43 36 34 37 37 38 38 35 34 30 33 33 31 29 28 26 26 26 27 27 27 27 29 27 27 30 31 33
83 83 81 77 74 71 68 67 65 62 59 52 52 44 40 42 41 39 40 41 41 41 38 37 36 35 35 34 34 31 28 28 29 30 29 28 30 30 29 30 30 29 30
81 77 84 81 77 73 71 70 71 66 57 50 51 46 46 48 48 47 45 44 44 44 44 42 40 40 41 37 36 33 30 29 30 29 31 31 31 32 32 30 30 29 32
67 79 81 84 80 75 74 74 70 68 56 50 51 48 48 48 50 50 48 46 46 46 50 49 46 44 44 40 34 34 32 31 31 31 32 30 33 34 34 32 32 32 33
66 82 86 84 78 75 74 74 77 54 54 53 52 53 53 57 56 54 49 48 48 50 53 53 48 47 46 43 36 37 34 32 31 33 32 34 32 33 34 36 32 33 34
Wind_Direction
289 286 289 290 282 271 264 259 260 264 273 280 294 304 309 318 343 3 353 356 358 352 347 344 341 332 316 297 289 282 278 272 272 271 269 265 261 259 264 252 265 264 267
281 285 290 294 290 280 270 263 259 260 270 278 285 293 305 308 329 349 355 354 356 354 345 344 342 338 328 305 296 293 291 277 266 263 263 261 266 278 271 260 258 265 268
270 277 282 293 292 281 276 273 267 261 268 274 276 282 289 298 309 328 342 348 348 350 347 340 332 328 320 305 299 303 296 294 284 275 274 268 262 269 270 264 264 263 264
270 270 279 289 299 288 282 281 276 271 272 274 275 276 277 282 290 309 325 335 337 346 344 341 328 326 321 310 308 305 303 305 298 289 287 275 265 263 262 257 254 240 248
267 271 279 286 297 307 298 287 284 281 286 278 276 279 276 274 279 285 297 317 329 334 338 341 334 331 323 321 315 309 307 301 299 288 287 282 272 262 255 254 251 249 237
267 270 273 279 288 300 314 295 287 287 287 290 286 278 281 276 277 278 283 296 314 324 330 334 338 329 321 319 309 310 306 305 295 295 290 284 279 266 252 252 251 245 240
267 269 274 276 283 298 305 303 285 284 282 285 288 286 279 278 276 275 277 281 297 316 325 330 331 328 323 315 308 307 305 305 299 300 300 288 296 289 271 263 257 244 224
263 265 270 277 284 291 297 301 281 282 282 279 285 289 285 281 281 277 276 279 284 305 318 326 330 329 323 314 307 304 303 303 302 303 297 295 293 306 302 289 258 224 207
258 264 267 272 275 284 291 294 284 280 281 284 285 285 286 282 281 280 278 280 283 288 306 318 325 325 318 313 309 302 302 309 306 300 304 307 297 301 305 224 230 217 213
256 261 267 269 272 277 280 282 283 280 277 282 286 285 284 283 280 278 280 280 281 282 290 300 313 320 318 312 305 304 303 306 308 304 308 307 296 293 280 304 230 241 231
249 252 257 262 265 269 273 273 270 273 276 280 281 282 281 283 280 277 274 279 280 284 280 286 299 308 317 314 310 304 307 304 304 303 309 308 300 283 275 286 294 255 245
246 251 252 255 257 260 263 261 265 271 278 280 275 278 280 283 281 278 273 273 276 277 281 278 285 291 307 311 317 311 306 304 298 298 298 301 308 288 272 272 264 270 237
245 247 250 253 257 262 262 255 260 268 272 273 271 271 273 276 282 279 277 274 272 274 274 274 275 278 284 302 313 315 312 309 300 293 291 295 303 300 290 291 314 272 228
246 247 247 249 253 257 259 264 258 262 265 263 263 262 266 268 273 279 278 275 274 272 273 274 273 270 271 279 297 307 311 312 305 301 290 288 288 297 295 284 281 278 255
244 247 247 247 250 255 260 261 263 259 260 263 260 256 261 264 270 274 270 272 273 271 270 272 273 273 268 269 276 291 299 307 306 304 296 287 285 285 287 280 274 287 258
244 244 247 248 247 248 252 259 261 262 254 256 259 259 255 257 267 270 269 273 277 275 274 270 270 271 269 267 269 277 288 296 301 300 294 293 285 276 274 282 277 271 262
243 244 244 246 247 249 251 251 258 262 261 257 251 254 255 256 260 260 267 264 268 269 274 275 271 269 269 267 266 271 279 287 292 297 293 292 286 279 275 279 277 263 263
243 244 244 244 247 249 251 255 252 255 260 256 256 249 247 252 252 256 260 266 267 267 271 274 274 270 266 266 268 271 272 275 281 286 292 291 287 282 276 276 275 269 259
244 242 241 243 244 246 249 253 251 245 252 254 255 254 245 243 247 254 259 262 266 267 268 270 273 271 269 267 266 268 269 269 271 279 285 290 289 284 274 274 276 271 269
242 240 240 240 243 244 246 248 252 244 247 251 254 256 252 244 244 247 256 261 263 264 264 266 269 273 270 268 270 271 272 272 272 275 279 284 290 290 278 274 274 272 267
240 241 238 239 240 242 244 245 247 250 244 250 249 251 250 246 244 247 252 258 264 264 263 265 266 272 270 271 271 270 272 272 271 272 276 284 287 289 286 275 272 272 267
238 239 237 235 235 238 242 245 247 248 242 245 249 249 247 250 251 252 253 255 260 263 264 264 263 264 267 269 269 269 274 276 275 272 275 277 283 285 287 278 273 271 267
237 234 235 232 231 233 237 241 244 244 245 243 248 251 256 258 256 253 256 255 257 261 265 264 263 257 262 265 270 269 272 278 279 280 275 277 279 283 285 283 273 274 274
243 231 229 228 227 228 233 237 241 243 246 238 246 249 250 251 252 252 252 255 257 262 266 262 262 259 258 260 262 265 271 275 279 280 279 279 280 284 284 287 280 273 271
221 215 219 224 224 226 229 234 234 229 234 234 239 246 250 256 253 250 253 255 258 263 264 265 263 264 263 264 258 265 270 272 277 280 279 274 279 280 284 286 285 269 271
209 209 211 217 220 223 226 233 239 228 230 241 242 247 251 254 253 252 249 251 255 257 261 263 266 267 269 262 257 266 268 272 274 277 277 279 277 279 283 286 284 273 271